This is the latest recevied weather packets stored in our database for station/object DO7ZT-10. If no packets are shown the sender has not sent any weather packets the latest 10 day(s).
| Time | Temp. | Humidity | Pressure | Rain* | Wind** | Luminosity | Snow |
|---|---|---|---|---|---|---|---|
| 1787843802 | 25.56° C | 39% | 1018.8 hPa | - | - | - | - |
| 1787842902 | 26.11° C | 38% | 1018.8 hPa | - | - | - | - |
| 1787842002 | 26.11° C | 38% | 1018.8 hPa | - | - | - | - |
| 1787841102 | 26.11° C | 38% | 1018.9 hPa | - | - | - | - |
| 1787840202 | 26.67° C | 39% | 1019 hPa | - | - | - | - |
| 1787839302 | 26.67° C | 39% | 1019 hPa | - | - | - | - |
| 1787838402 | 26.67° C | 38% | 1018.8 hPa | - | - | - | - |
| 1787837502 | 26.67° C | 38% | 1019 hPa | - | - | - | - |
| 1787836602 | 26.67° C | 38% | 1019.2 hPa | - | - | - | - |
| 1787835701 | 26.67° C | 40% | 1019.2 hPa | - | - | - | - |
| 1787834801 | 26.67° C | 39% | 1019.4 hPa | - | - | - | - |
| 1787833901 | 26.11° C | 41% | 1019.3 hPa | - | - | - | - |
| 1787833001 | 26.11° C | 41% | 1019.2 hPa | - | - | - | - |
| 1787832100 | 26.11° C | 40% | 1019.4 hPa | - | - | - | - |
| 1787831200 | 26.11° C | 42% | 1019.4 hPa | - | - | - | - |
| 1787830300 | 25.56° C | 41% | 1019.5 hPa | - | - | - | - |
| 1787829400 | 25.56° C | 43% | 1019.6 hPa | - | - | - | - |
| 1787828500 | 25.56° C | 41% | 1019.6 hPa | - | - | - | - |
| 1787827600 | 25° C | 44% | 1019.8 hPa | - | - | - | - |
| 1787826700 | 25° C | 43% | 1019.9 hPa | - | - | - | - |
| 1787825800 | 24.44° C | 46% | 1020 hPa | - | - | - | - |
| 1787824899 | 23.89° C | 45% | 1020.1 hPa | - | - | - | - |
| 1787823999 | 23.33° C | 49% | 1020.1 hPa | - | - | - | - |
| 1787823099 | 22.78° C | 50% | 1020.4 hPa | - | - | - | - |
| 1787822199 | 22.78° C | 52% | 1020.5 hPa | - | - | - | - |
* Rain since midnight (hover to see other rain measurements)
** Current wind speed in m/s (hover to see current wind gust speed)